Year,Month,Day,Hour,Minute,Value (Times are PST for temperature in C)
2011,04,26,00,00,8.30
2011,04,26,00,01,8.30
2011,04,26,00,02,8.30
2011,04,26,00,03,8.30
2011,04,26,00,04,8.30
2011,04,26,00,05,8.30
2011,04,26,00,06,8.30
2011,04,26,00,07,8.30
2011,04,26,00,08,8.30
2011,04,26,00,09,8.30
2011,04,26,00,10,8.30
2011,04,26,00,11,8.30
2011,04,26,00,12,8.30
2011,04,26,00,13,8.30
2011,04,26,00,14,8.30
2011,04,26,00,15,8.20
2011,04,26,00,16,8.20
2011,04,26,00,17,8.20
2011,04,26,00,18,8.30
2011,04,26,00,19,8.30
2011,04,26,00,20,8.30
2011,04,26,00,21,8.30
2011,04,26,00,22,8.30
2011,04,26,00,23,8.30
2011,04,26,00,24,8.30
2011,04,26,00,25,8.30
2011,04,26,00,26,8.30
2011,04,26,00,27,8.30
2011,04,26,00,28,8.30
2011,04,26,00,29,8.30
2011,04,26,00,30,8.30
2011,04,26,00,31,8.30
2011,04,26,00,32,8.30
2011,04,26,00,33,8.20
2011,04,26,00,34,8.20
2011,04,26,00,35,8.20
2011,04,26,00,36,8.20
2011,04,26,00,37,8.20
2011,04,26,00,38,8.20
2011,04,26,00,39,8.20
2011,04,26,00,40,8.10
2011,04,26,00,41,8.10
2011,04,26,00,42,8.10
2011,04,26,00,43,8.10
2011,04,26,00,44,8.10
2011,04,26,00,45,8.10
2011,04,26,00,46,8.10
2011,04,26,00,47,8.10
2011,04,26,00,48,8.00
2011,04,26,00,49,8.00
2011,04,26,00,50,7.90
2011,04,26,00,51,7.90
2011,04,26,00,52,7.90
2011,04,26,00,53,7.80
2011,04,26,00,54,7.80
2011,04,26,00,55,7.80
2011,04,26,00,56,7.80
2011,04,26,00,57,7.80
2011,04,26,00,58,7.80
2011,04,26,00,59,7.80
2011,04,26,01,00,7.70
2011,04,26,01,01,7.70
2011,04,26,01,02,7.70
2011,04,26,01,03,7.70
2011,04,26,01,04,7.70
2011,04,26,01,05,7.70
2011,04,26,01,06,7.70
2011,04,26,01,07,7.70
2011,04,26,01,08,7.70
2011,04,26,01,09,7.70
2011,04,26,01,10,7.60
2011,04,26,01,11,7.60
2011,04,26,01,12,7.60
2011,04,26,01,13,7.60
2011,04,26,01,14,7.60
2011,04,26,01,15,7.60
2011,04,26,01,16,7.60
2011,04,26,01,17,7.60
2011,04,26,01,18,7.60
2011,04,26,01,19,7.60
2011,04,26,01,20,7.60
2011,04,26,01,21,7.60
2011,04,26,01,22,7.60
2011,04,26,01,23,7.60
2011,04,26,01,24,7.70
2011,04,26,01,25,7.70
2011,04,26,01,26,7.70
2011,04,26,01,27,7.70
2011,04,26,01,28,7.70
2011,04,26,01,29,7.70
2011,04,26,01,30,7.70
2011,04,26,01,31,7.70
2011,04,26,01,32,7.70
2011,04,26,01,33,7.60
2011,04,26,01,34,7.60
2011,04,26,01,35,7.60
2011,04,26,01,36,7.60
2011,04,26,01,37,7.60
2011,04,26,01,38,7.60
2011,04,26,01,39,7.60
2011,04,26,01,40,7.60
2011,04,26,01,41,7.60
2011,04,26,01,42,7.60
2011,04,26,01,43,7.60
2011,04,26,01,44,7.60
2011,04,26,01,45,7.60
2011,04,26,01,46,7.50
2011,04,26,01,47,7.50
2011,04,26,01,48,7.50
2011,04,26,01,49,7.50
2011,04,26,01,50,7.40
2011,04,26,01,51,7.40
2011,04,26,01,52,7.40
2011,04,26,01,53,7.40
2011,04,26,01,54,7.40
2011,04,26,01,55,7.40
2011,04,26,01,56,7.40
2011,04,26,01,57,7.40
2011,04,26,01,58,7.40
2011,04,26,01,59,7.40
2011,04,26,02,00,7.40
2011,04,26,02,01,7.50
2011,04,26,02,02,7.50
2011,04,26,02,03,7.50
2011,04,26,02,04,7.50
2011,04,26,02,05,7.50
2011,04,26,02,06,7.50
2011,04,26,02,07,7.50
2011,04,26,02,08,7.50
2011,04,26,02,09,7.50
2011,04,26,02,10,7.50
2011,04,26,02,11,7.50
2011,04,26,02,12,7.50
2011,04,26,06,27,4.20
2011,04,26,06,28,4.20
2011,04,26,06,29,4.20
2011,04,26,06,30,4.20
2011,04,26,06,31,4.20
2011,04,26,06,32,4.10
2011,04,26,06,33,4.10
2011,04,26,06,34,4.10
2011,04,26,06,35,4.10
2011,04,26,06,36,4.00
2011,04,26,06,37,4.00
2011,04,26,06,38,3.90
2011,04,26,06,39,3.90
2011,04,26,06,40,3.90
2011,04,26,06,41,3.80
2011,04,26,06,42,3.80
2011,04,26,06,43,3.70
2011,04,26,06,44,3.70
2011,04,26,06,45,3.70
2011,04,26,06,46,3.70
2011,04,26,06,47,3.80
2011,04,26,06,48,3.80
2011,04,26,06,49,3.80
2011,04,26,06,50,3.80
2011,04,26,06,51,3.80
2011,04,26,06,52,3.80
2011,04,26,06,53,3.80
2011,04,26,06,54,3.80
2011,04,26,06,55,3.80
2011,04,26,06,56,3.80
2011,04,26,06,57,3.80
2011,04,26,06,58,3.80
2011,04,26,06,59,3.80
2011,04,26,07,00,3.80
2011,04,26,07,01,3.80
2011,04,26,07,02,3.80
2011,04,26,07,03,3.80
2011,04,26,07,04,3.80
2011,04,26,07,05,3.70
2011,04,26,07,06,3.70
2011,04,26,07,07,3.80
2011,04,26,07,08,3.80
2011,04,26,07,09,3.80
2011,04,26,07,10,3.80
2011,04,26,07,11,3.80
2011,04,26,07,12,3.80
2011,04,26,07,13,3.80
2011,04,26,07,14,3.80
2011,04,26,07,15,3.80
2011,04,26,07,16,3.90
2011,04,26,07,17,3.90
2011,04,26,07,18,3.90
2011,04,26,07,19,3.90
2011,04,26,07,20,4.00
2011,04,26,07,21,4.00
2011,04,26,07,22,4.10
2011,04,26,07,23,4.20
2011,04,26,07,24,4.30
2011,04,26,07,25,4.40
2011,04,26,07,26,4.50
2011,04,26,07,27,4.60
2011,04,26,07,28,4.70
2011,04,26,07,29,4.80
2011,04,26,07,30,4.90
2011,04,26,07,31,4.90
2011,04,26,07,32,5.00
2011,04,26,07,33,5.10
2011,04,26,07,34,5.10
2011,04,26,07,35,5.20
2011,04,26,07,36,5.30
2011,04,26,07,37,5.40
2011,04,26,07,38,5.50
2011,04,26,07,39,5.60
2011,04,26,07,40,5.80
2011,04,26,07,41,5.90
2011,04,26,07,42,5.90
2011,04,26,07,43,6.00
2011,04,26,07,44,6.10
2011,04,26,07,45,6.20
2011,04,26,07,46,6.30
2011,04,26,07,47,6.40
2011,04,26,07,48,6.40
2011,04,26,07,49,6.50
2011,04,26,07,50,6.50
2011,04,26,07,51,6.60
2011,04,26,07,52,6.60
2011,04,26,07,53,6.60
2011,04,26,07,54,6.60
2011,04,26,07,55,6.60
2011,04,26,07,56,6.70
2011,04,26,07,57,6.70
2011,04,26,07,58,6.80
2011,04,26,07,59,6.90
2011,04,26,08,00,7.00
2011,04,26,08,01,7.00
2011,04,26,08,02,7.10
2011,04,26,08,03,7.20
2011,04,26,08,04,7.20
2011,04,26,08,05,7.20
2011,04,26,08,06,7.30
2011,04,26,08,07,7.30
2011,04,26,08,08,7.40
2011,04,26,08,09,7.50
2011,04,26,08,10,7.50
2011,04,26,08,11,7.60
2011,04,26,08,12,7.70
2011,04,26,08,13,7.70
2011,04,26,08,14,7.80
2011,04,26,08,15,7.80
2011,04,26,08,16,7.90
2011,04,26,08,17,7.90
2011,04,26,08,18,7.90
2011,04,26,08,19,8.00
2011,04,26,08,20,8.00
2011,04,26,08,21,8.00
2011,04,26,08,22,8.00
2011,04,26,08,23,8.00
2011,04,26,08,24,8.10
2011,04,26,08,25,8.10
2011,04,26,08,26,8.20
2011,04,26,08,27,8.30
2011,04,26,08,28,8.30
2011,04,26,08,29,8.40
2011,04,26,08,30,8.50
2011,04,26,08,31,8.60
2011,04,26,08,32,8.60
2011,04,26,08,33,8.60
2011,04,26,08,34,8.60
2011,04,26,08,35,8.70
2011,04,26,08,36,8.70
2011,04,26,08,37,8.80
2011,04,26,08,38,8.80
2011,04,26,08,39,8.90
2011,04,26,08,40,8.90
2011,04,26,08,41,8.90
2011,04,26,08,42,8.90
2011,04,26,08,43,8.90
2011,04,26,08,44,9.00
2011,04,26,08,45,9.00
2011,04,26,08,46,9.10
2011,04,26,08,47,9.20
2011,04,26,08,48,9.20
2011,04,26,08,49,9.20
2011,04,26,08,50,9.20
2011,04,26,08,51,9.20
2011,04,26,08,52,9.30
2011,04,26,08,53,9.30
2011,04,26,08,54,9.30
2011,04,26,08,55,9.40
2011,04,26,08,56,9.40
2011,04,26,08,57,9.50
2011,04,26,08,58,9.60
2011,04,26,08,59,9.60
2011,04,26,09,00,9.60
2011,04,26,09,01,9.70
2011,04,26,09,02,9.60
2011,04,26,09,03,9.60
2011,04,26,09,04,9.70
2011,04,26,09,05,9.70
2011,04,26,09,06,9.70
2011,04,26,09,07,9.70
2011,04,26,09,08,9.70
2011,04,26,09,09,9.70
2011,04,26,09,10,9.70
2011,04,26,09,11,9.80
2011,04,26,09,12,9.80
2011,04,26,09,13,9.80
2011,04,26,09,14,9.90
2011,04,26,09,15,9.90
2011,04,26,09,16,9.90
2011,04,26,09,17,9.90
2011,04,26,09,18,9.90
2011,04,26,09,19,9.90
2011,04,26,09,20,9.90
2011,04,26,09,21,9.80
2011,04,26,09,22,9.80
2011,04,26,09,23,9.80
2011,04,26,09,24,9.90
2011,04,26,09,25,10.00
2011,04,26,09,26,10.00
2011,04,26,09,27,10.10
2011,04,26,09,28,10.10
2011,04,26,09,29,10.10
2011,04,26,09,30,10.00
2011,04,26,09,31,9.90
2011,04,26,09,32,9.90
2011,04,26,09,33,9.90
2011,04,26,09,34,10.00
2011,04,26,09,35,10.00
2011,04,26,09,36,10.00
2011,04,26,09,37,9.90
2011,04,26,09,38,9.80
2011,04,26,09,39,9.80
2011,04,26,09,40,9.80
2011,04,26,09,41,9.70
2011,04,26,09,42,9.70
2011,04,26,09,43,9.80
2011,04,26,09,44,9.80
2011,04,26,09,45,9.70
2011,04,26,09,46,9.70
2011,04,26,09,47,9.70
2011,04,26,09,48,9.80
2011,04,26,09,49,9.80
2011,04,26,09,50,9.70
2011,04,26,09,51,9.70
2011,04,26,09,52,9.70
2011,04,26,09,53,9.80
2011,04,26,09,54,9.80
2011,04,26,09,55,9.90
2011,04,26,09,56,9.90
2011,04,26,09,57,9.90
2011,04,26,09,58,9.90
2011,04,26,09,59,10.00
2011,04,26,10,00,10.00
2011,04,26,10,01,10.00
2011,04,26,10,02,10.10
2011,04,26,10,03,10.10
2011,04,26,10,04,10.20
2011,04,26,10,05,10.10
2011,04,26,10,06,10.10
2011,04,26,10,07,10.10
2011,04,26,10,08,10.10
2011,04,26,10,09,10.20
2011,04,26,10,10,10.20
2011,04,26,10,11,10.10
2011,04,26,10,12,10.20
2011,04,26,10,13,10.20
2011,04,26,10,14,10.30
2011,04,26,10,15,10.40
2011,04,26,10,16,10.50
2011,04,26,10,17,10.60
2011,04,26,10,18,10.70
2011,04,26,10,19,10.70
2011,04,26,10,20,10.70
2011,04,26,10,21,10.70
2011,04,26,10,22,10.50
2011,04,26,10,23,10.30
2011,04,26,10,24,10.30
2011,04,26,10,25,10.30
2011,04,26,10,26,10.30
2011,04,26,10,27,10.30
2011,04,26,10,28,10.20
2011,04,26,10,29,10.20
2011,04,26,10,30,10.20
2011,04,26,10,31,10.30
2011,04,26,10,32,10.30
2011,04,26,10,33,10.40
2011,04,26,10,34,10.50
2011,04,26,10,35,10.60
2011,04,26,10,36,10.80
2011,04,26,10,37,10.80
2011,04,26,10,38,10.80
2011,04,26,10,39,10.80
2011,04,26,10,40,10.70
2011,04,26,10,41,10.60
2011,04,26,10,42,10.60
2011,04,26,10,43,10.60
2011,04,26,10,44,10.70
2011,04,26,10,45,10.70
2011,04,26,10,46,10.80
2011,04,26,10,47,11.00
2011,04,26,10,48,11.10
2011,04,26,10,49,11.20
2011,04,26,10,50,11.30
2011,04,26,10,51,11.30
2011,04,26,10,52,11.20
2011,04,26,10,53,11.00
2011,04,26,10,54,10.80
2011,04,26,10,55,10.80
2011,04,26,10,56,10.70
2011,04,26,10,57,10.60
2011,04,26,10,58,10.50
2011,04,26,10,59,10.50
2011,04,26,11,00,10.40
2011,04,26,11,01,10.30
2011,04,26,11,02,10.10
2011,04,26,11,03,10.10
2011,04,26,11,04,10.10
2011,04,26,11,05,10.10
2011,04,26,11,06,10.10
2011,04,26,11,07,10.10
2011,04,26,11,08,10.00
2011,04,26,11,09,10.00
2011,04,26,11,10,9.90
2011,04,26,11,11,9.80
2011,04,26,11,12,9.80
2011,04,26,11,13,9.80
2011,04,26,11,14,9.70
2011,04,26,11,15,9.70
2011,04,26,11,16,9.70
2011,04,26,11,17,9.70
2011,04,26,11,18,9.60
2011,04,26,11,19,9.60
2011,04,26,11,20,9.50
2011,04,26,11,21,9.50
2011,04,26,11,22,9.40
2011,04,26,11,23,9.40
2011,04,26,11,24,9.40
2011,04,26,11,25,9.40
2011,04,26,11,26,9.40
2011,04,26,11,27,9.40
2011,04,26,11,28,9.40
2011,04,26,11,29,9.40
2011,04,26,11,30,9.40
2011,04,26,11,31,9.50
2011,04,26,11,32,9.50
2011,04,26,11,33,9.50
2011,04,26,11,34,9.60
2011,04,26,11,35,9.60
2011,04,26,11,36,9.60
2011,04,26,11,37,9.60
2011,04,26,11,38,9.60
2011,04,26,11,39,9.60
2011,04,26,11,40,9.60
2011,04,26,11,41,9.60
2011,04,26,11,42,9.70
2011,04,26,11,43,9.70
2011,04,26,11,44,9.80
2011,04,26,11,45,9.90
2011,04,26,11,46,9.90
2011,04,26,11,47,10.00
2011,04,26,11,48,10.00
2011,04,26,11,49,10.00
2011,04,26,11,50,10.10
2011,04,26,11,51,10.10
2011,04,26,11,52,10.10
2011,04,26,11,53,10.10
2011,04,26,11,54,10.10
2011,04,26,11,55,10.10
2011,04,26,11,56,10.10
2011,04,26,11,57,10.10
2011,04,26,11,58,10.10
2011,04,26,11,59,10.10
2011,04,26,12,00,10.10
2011,04,26,12,01,10.10
2011,04,26,12,02,10.10
2011,04,26,12,03,10.20
2011,04,26,12,04,10.10
2011,04,26,12,05,10.10
2011,04,26,12,06,10.10
2011,04,26,12,07,10.10
2011,04,26,12,08,10.10
2011,04,26,12,09,10.10
2011,04,26,12,10,10.10
2011,04,26,12,11,10.10
2011,04,26,12,12,10.10
2011,04,26,12,13,10.10
2011,04,26,12,14,10.10
2011,04,26,12,15,10.20
2011,04,26,12,16,10.20
2011,04,26,12,17,10.20
2011,04,26,12,18,10.20
2011,04,26,12,19,10.20
2011,04,26,12,20,10.20
2011,04,26,12,21,10.20
2011,04,26,12,22,10.20
2011,04,26,12,23,10.20
2011,04,26,12,24,10.10
2011,04,26,12,25,10.10
2011,04,26,12,26,10.00
2011,04,26,12,27,9.90
2011,04,26,12,28,9.80
2011,04,26,12,29,9.80
2011,04,26,12,30,9.70
2011,04,26,12,31,9.70
2011,04,26,12,32,9.70
2011,04,26,12,33,9.70
2011,04,26,12,34,9.70
2011,04,26,12,35,9.70
2011,04,26,12,36,9.70
2011,04,26,12,37,9.80
2011,04,26,12,38,9.80
2011,04,26,12,39,9.80
2011,04,26,12,40,9.90
2011,04,26,12,41,10.00
2011,04,26,12,42,10.00
2011,04,26,12,43,10.10
2011,04,26,12,44,10.10
2011,04,26,12,45,10.10
2011,04,26,12,46,10.20
2011,04,26,12,47,10.20
2011,04,26,12,48,10.20
2011,04,26,12,49,10.30
2011,04,26,12,50,10.40
2011,04,26,12,51,10.40
2011,04,26,12,52,10.50
2011,04,26,12,53,10.50
2011,04,26,12,54,10.40
2011,04,26,12,55,10.40
2011,04,26,12,56,10.30
2011,04,26,12,57,10.30
2011,04,26,12,58,10.30
2011,04,26,12,59,10.30
2011,04,26,13,00,10.20
2011,04,26,13,01,10.20
2011,04,26,13,02,10.20
2011,04,26,13,03,10.20
2011,04,26,13,04,10.10
2011,04,26,13,05,10.10
2011,04,26,13,06,10.10
2011,04,26,13,07,10.20
2011,04,26,13,08,10.30
2011,04,26,13,09,10.40
2011,04,26,13,10,10.50
2011,04,26,13,11,10.60
2011,04,26,13,12,10.60
2011,04,26,13,13,10.70
2011,04,26,13,14,10.70
2011,04,26,13,15,10.70
2011,04,26,13,16,10.70
2011,04,26,13,17,10.80
2011,04,26,13,18,10.80
2011,04,26,13,19,10.80
2011,04,26,13,20,10.80
2011,04,26,13,21,10.80
2011,04,26,13,22,10.80
2011,04,26,13,23,10.80
2011,04,26,13,24,10.80
2011,04,26,13,25,10.80
2011,04,26,13,26,10.80
2011,04,26,13,27,10.90
2011,04,26,13,28,11.00
2011,04,26,13,29,11.20
2011,04,26,13,30,11.40
2011,04,26,13,31,11.60
2011,04,26,13,32,11.70
2011,04,26,13,33,11.70
2011,04,26,13,34,11.70
2011,04,26,13,35,11.70
2011,04,26,13,36,11.80
2011,04,26,13,37,11.90
2011,04,26,13,38,12.00
2011,04,26,13,39,12.00
2011,04,26,13,40,12.00
2011,04,26,13,41,12.00
2011,04,26,13,42,12.10
2011,04,26,13,43,12.10
2011,04,26,13,44,12.00
2011,04,26,13,45,12.10
2011,04,26,13,46,12.10
2011,04,26,13,47,12.10
2011,04,26,13,48,12.10
2011,04,26,13,49,12.00
2011,04,26,13,50,12.00
2011,04,26,13,51,11.90
2011,04,26,13,52,11.90
2011,04,26,13,53,11.90
2011,04,26,13,54,11.80
2011,04,26,13,55,11.80
2011,04,26,13,56,11.70
2011,04,26,13,57,11.70
2011,04,26,13,58,11.60
2011,04,26,13,59,11.50
2011,04,26,14,00,11.40
2011,04,26,14,01,11.40
2011,04,26,14,02,11.30
2011,04,26,14,03,11.20
2011,04,26,14,04,11.30
2011,04,26,14,05,11.30
2011,04,26,14,06,11.40
2011,04,26,14,07,11.30
2011,04,26,14,08,11.30
2011,04,26,14,09,11.30
2011,04,26,14,10,11.40
2011,04,26,14,11,11.40
2011,04,26,14,12,11.50
2011,04,26,14,13,11.60
2011,04,26,14,14,11.80
2011,04,26,14,15,11.90
2011,04,26,14,16,12.00
2011,04,26,14,17,12.00
2011,04,26,14,18,12.00
2011,04,26,14,19,11.90
2011,04,26,14,20,11.90
2011,04,26,14,21,12.00
2011,04,26,14,22,12.10
2011,04,26,14,23,12.20
2011,04,26,14,24,12.20
2011,04,26,14,25,12.30
2011,04,26,14,26,12.40
2011,04,26,14,27,12.40
2011,04,26,14,28,12.50
2011,04,26,14,29,12.50
2011,04,26,14,30,12.60
2011,04,26,14,31,12.80
2011,04,26,14,32,12.80
2011,04,26,14,33,12.80
2011,04,26,14,34,12.80
2011,04,26,14,35,12.70
2011,04,26,14,36,12.60
2011,04,26,14,37,12.50
2011,04,26,14,38,12.60
2011,04,26,14,39,12.70
2011,04,26,14,40,12.80
2011,04,26,14,41,12.80
2011,04,26,14,42,12.70
2011,04,26,14,43,12.60
2011,04,26,14,44,12.50
2011,04,26,14,45,12.40
2011,04,26,14,46,12.30
2011,04,26,14,47,12.20
2011,04,26,14,48,12.20
2011,04,26,14,49,12.10
2011,04,26,14,50,12.00
2011,04,26,14,51,11.90
2011,04,26,14,52,11.90
2011,04,26,14,53,11.80
2011,04,26,14,54,11.80
2011,04,26,14,55,11.70
2011,04,26,14,56,11.70
2011,04,26,14,57,11.70
2011,04,26,14,58,11.70
2011,04,26,14,59,11.70
2011,04,26,15,00,11.70
2011,04,26,15,01,11.70
2011,04,26,15,02,11.80
2011,04,26,15,03,11.80
2011,04,26,15,04,11.90
2011,04,26,15,05,11.90
2011,04,26,15,06,11.80
2011,04,26,15,07,11.80
2011,04,26,15,08,11.80
2011,04,26,15,09,11.80
2011,04,26,15,10,11.90
2011,04,26,15,11,12.00
2011,04,26,15,12,12.00
2011,04,26,15,13,12.00
2011,04,26,15,14,11.90
2011,04,26,15,15,11.90
2011,04,26,15,16,11.90
2011,04,26,15,17,11.90
2011,04,26,15,18,11.90
2011,04,26,15,19,11.90
2011,04,26,15,20,11.80
2011,04,26,15,21,11.70
2011,04,26,15,22,11.60
2011,04,26,15,23,11.50
2011,04,26,15,24,11.40
2011,04,26,15,25,11.30
2011,04,26,15,26,11.20
2011,04,26,15,27,11.20
2011,04,26,15,28,11.10
2011,04,26,15,29,11.00
2011,04,26,15,30,10.90
2011,04,26,15,31,10.80
2011,04,26,15,32,10.80
2011,04,26,15,33,10.70
2011,04,26,15,34,10.70
2011,04,26,15,35,10.70
2011,04,26,15,36,10.70
2011,04,26,15,37,10.70
2011,04,26,15,38,10.60
2011,04,26,15,39,10.60
2011,04,26,15,40,10.60
2011,04,26,15,41,10.70
2011,04,26,15,42,10.70
2011,04,26,15,43,10.70
2011,04,26,15,44,10.70
2011,04,26,15,45,10.80
2011,04,26,15,46,10.80
2011,04,26,15,47,10.70
2011,04,26,15,48,10.60
2011,04,26,15,49,10.60
2011,04,26,15,50,10.70
2011,04,26,15,51,10.70
2011,04,26,15,52,10.70
2011,04,26,15,53,10.70
2011,04,26,15,54,10.70
2011,04,26,15,55,10.80
2011,04,26,15,56,10.80
2011,04,26,15,57,10.80
2011,04,26,15,58,10.80
2011,04,26,15,59,10.80
2011,04,26,16,00,10.90
2011,04,26,16,01,10.90
2011,04,26,16,02,10.90
2011,04,26,16,03,10.80
2011,04,26,16,04,10.80
2011,04,26,16,05,10.80
2011,04,26,16,06,10.80
2011,04,26,16,07,10.80
2011,04,26,16,08,10.80
2011,04,26,16,09,10.80
2011,04,26,16,10,10.80
2011,04,26,16,11,10.80
2011,04,26,16,12,10.80
2011,04,26,16,13,10.80
2011,04,26,16,14,10.80
2011,04,26,16,15,10.90
2011,04,26,16,16,10.90
2011,04,26,16,17,10.90
2011,04,26,16,18,10.80
2011,04,26,16,19,10.80
2011,04,26,16,20,10.90
2011,04,26,16,21,10.90
2011,04,26,16,22,10.90
2011,04,26,16,23,10.90
2011,04,26,16,24,10.90
2011,04,26,16,25,10.90
2011,04,26,16,26,11.00
2011,04,26,16,27,10.90
2011,04,26,16,28,10.90
2011,04,26,16,29,10.90
2011,04,26,16,30,10.90
2011,04,26,16,31,10.90
2011,04,26,16,32,10.90
2011,04,26,16,33,10.90
2011,04,26,16,34,10.90
2011,04,26,16,35,10.80
2011,04,26,16,36,10.80
2011,04,26,16,37,10.70
2011,04,26,16,38,10.70
2011,04,26,16,39,10.70
2011,04,26,16,40,10.60
2011,04,26,16,41,10.50
2011,04,26,16,42,10.50
2011,04,26,16,43,10.40
2011,04,26,16,44,10.40
2011,04,26,16,45,10.40
2011,04,26,16,46,10.40
2011,04,26,16,47,10.40
2011,04,26,16,48,10.40
2011,04,26,16,49,10.40
2011,04,26,16,50,10.50
2011,04,26,16,51,10.50
2011,04,26,16,52,10.50
2011,04,26,16,53,10.60
2011,04,26,16,54,10.60
2011,04,26,16,55,10.60
2011,04,26,16,56,10.60
2011,04,26,16,57,10.70
2011,04,26,16,58,10.70
2011,04,26,16,59,10.80
2011,04,26,17,00,10.80
2011,04,26,17,01,10.90
2011,04,26,17,02,11.00
2011,04,26,17,03,11.10
2011,04,26,17,04,11.20
2011,04,26,17,05,11.30
2011,04,26,17,06,11.30
2011,04,26,17,07,11.40
2011,04,26,17,08,11.40
2011,04,26,17,09,11.40
2011,04,26,17,10,11.50
2011,04,26,17,11,11.60
2011,04,26,17,12,11.60
2011,04,26,17,13,11.70
2011,04,26,17,14,11.70
2011,04,26,17,15,11.70
2011,04,26,17,16,11.80
2011,04,26,17,17,11.80
2011,04,26,17,18,11.70
2011,04,26,17,19,11.70
2011,04,26,17,20,11.70
2011,04,26,17,21,11.70
2011,04,26,17,22,11.70
2011,04,26,17,23,11.70
2011,04,26,17,24,11.70
2011,04,26,17,25,11.70
2011,04,26,17,26,11.70
2011,04,26,17,27,11.70
2011,04,26,17,28,11.60
2011,04,26,17,29,11.50
2011,04,26,17,30,11.40
2011,04,26,17,31,11.30
2011,04,26,17,32,11.20
2011,04,26,17,33,11.10
2011,04,26,17,34,11.00
2011,04,26,17,35,10.90
2011,04,26,17,36,10.80
2011,04,26,17,37,10.80
2011,04,26,17,38,10.80
2011,04,26,17,39,10.80
2011,04,26,17,40,10.80
2011,04,26,17,41,10.70
2011,04,26,17,42,10.70
2011,04,26,17,43,10.70
2011,04,26,17,44,10.60
2011,04,26,17,45,10.60
2011,04,26,17,46,10.60
2011,04,26,17,47,10.50
2011,04,26,17,48,10.50
2011,04,26,17,49,10.50
2011,04,26,17,50,10.40
2011,04,26,17,51,10.40
2011,04,26,17,52,10.40
2011,04,26,17,53,10.50
2011,04,26,17,54,10.50
2011,04,26,17,55,10.60
2011,04,26,17,56,10.60
2011,04,26,17,57,10.60
2011,04,26,17,58,10.70
2011,04,26,17,59,10.70
2011,04,26,18,00,10.70
2011,04,26,18,01,10.70
2011,04,26,18,02,10.80
2011,04,26,18,03,10.80
2011,04,26,18,04,10.80
2011,04,26,18,05,10.90
2011,04,26,18,06,10.90
2011,04,26,18,07,11.00
2011,04,26,18,08,11.00
2011,04,26,18,09,11.00
2011,04,26,18,10,11.00
2011,04,26,18,11,11.00
2011,04,26,18,12,11.00
2011,04,26,18,13,11.00
2011,04,26,18,14,11.00
2011,04,26,18,15,11.10
2011,04,26,18,16,11.10
2011,04,26,18,17,11.20
2011,04,26,18,18,11.20
2011,04,26,18,19,11.30
2011,04,26,18,20,11.30
2011,04,26,18,21,11.40
2011,04,26,18,22,11.40
2011,04,26,18,23,11.40
2011,04,26,18,24,11.40
2011,04,26,18,25,11.40
2011,04,26,18,26,11.30
2011,04,26,18,27,11.30
2011,04,26,18,28,11.30
2011,04,26,18,29,11.30
2011,04,26,18,30,11.30
2011,04,26,18,31,11.30
2011,04,26,18,32,11.40
2011,04,26,18,33,11.40
2011,04,26,18,34,11.30
2011,04,26,18,35,11.30
2011,04,26,18,36,11.30
2011,04,26,18,37,11.30
2011,04,26,18,38,11.20
2011,04,26,18,39,11.20
2011,04,26,18,40,11.20
2011,04,26,18,41,11.20
2011,04,26,18,42,11.20
2011,04,26,18,43,11.20
2011,04,26,18,44,11.20
2011,04,26,18,45,11.20
2011,04,26,18,46,11.20
2011,04,26,18,47,11.20
2011,04,26,18,48,11.20
2011,04,26,18,49,11.20
2011,04,26,18,50,11.20
2011,04,26,18,51,11.20
2011,04,26,18,52,11.10
2011,04,26,18,53,11.10
2011,04,26,18,54,11.10
2011,04,26,18,55,11.10
2011,04,26,18,56,11.10
2011,04,26,18,57,11.10
2011,04,26,18,58,11.10
2011,04,26,18,59,11.10
2011,04,26,19,00,11.10
2011,04,26,19,01,11.10
2011,04,26,19,02,11.10
2011,04,26,19,03,11.20
2011,04,26,19,04,11.20
2011,04,26,19,05,11.30
2011,04,26,19,06,11.30
2011,04,26,19,07,11.40
2011,04,26,19,08,11.40
2011,04,26,19,09,11.40
2011,04,26,19,10,11.40
2011,04,26,19,11,11.40
2011,04,26,19,12,11.40
2011,04,26,19,13,11.40
2011,04,26,19,14,11.40
2011,04,26,19,15,11.40
2011,04,26,19,16,11.40
2011,04,26,19,17,11.40
2011,04,26,19,18,11.40
2011,04,26,19,19,11.40
2011,04,26,19,20,11.40
2011,04,26,19,21,11.40
2011,04,26,19,22,11.40
2011,04,26,19,23,11.50
2011,04,26,19,24,11.50
2011,04,26,19,25,11.60
2011,04,26,19,26,11.60
2011,04,26,19,27,11.60
2011,04,26,19,28,11.60
2011,04,26,19,29,11.60
2011,04,26,19,30,11.60
2011,04,26,19,31,11.60
2011,04,26,19,32,11.60
2011,04,26,19,33,11.60
2011,04,26,19,34,11.60
2011,04,26,19,35,11.60
2011,04,26,19,36,11.60
2011,04,26,19,37,11.60
2011,04,26,19,38,11.50
2011,04,26,19,39,11.50
2011,04,26,19,40,11.50
2011,04,26,19,41,11.40
2011,04,26,19,42,11.40
2011,04,26,19,43,11.40
2011,04,26,19,44,11.40
2011,04,26,19,45,11.40
2011,04,26,19,46,11.30
2011,04,26,19,47,11.30
2011,04,26,19,48,11.30
2011,04,26,19,49,11.30
2011,04,26,19,50,11.20
2011,04,26,19,51,11.20
2011,04,26,19,52,11.10
2011,04,26,19,53,11.10
2011,04,26,19,54,11.10
2011,04,26,19,55,11.10
2011,04,26,19,56,11.10
2011,04,26,19,57,11.10
2011,04,26,19,58,11.10
2011,04,26,19,59,11.10
2011,04,26,20,00,11.10
2011,04,26,20,01,11.20
2011,04,26,20,02,11.20
2011,04,26,20,03,11.10
2011,04,26,20,04,11.10
2011,04,26,20,05,11.10
2011,04,26,20,06,11.10
2011,04,26,20,07,11.10
2011,04,26,20,08,11.10
2011,04,26,20,09,11.00
2011,04,26,20,10,10.90
2011,04,26,20,11,10.90
2011,04,26,20,12,10.80
2011,04,26,20,13,10.80
2011,04,26,20,14,10.80
2011,04,26,20,15,10.70
2011,04,26,20,16,10.70
2011,04,26,20,17,10.70
2011,04,26,20,18,10.70
2011,04,26,20,19,10.70
2011,04,26,20,20,10.70
2011,04,26,20,21,10.70
2011,04,26,20,22,10.60
2011,04,26,20,23,10.60
2011,04,26,20,24,10.60
2011,04,26,20,25,10.60
2011,04,26,20,26,10.60
2011,04,26,20,27,10.60
2011,04,26,20,28,10.60
2011,04,26,20,29,10.60
2011,04,26,20,30,10.60
2011,04,26,20,31,10.50
2011,04,26,20,32,10.50
2011,04,26,20,33,10.50
2011,04,26,20,34,10.40
2011,04,26,20,35,10.40
2011,04,26,20,36,10.40
2011,04,26,20,37,10.40
2011,04,26,20,38,10.40
2011,04,26,20,39,10.30
2011,04,26,20,40,10.30
2011,04,26,20,41,10.30
2011,04,26,20,42,10.20
2011,04,26,20,43,10.20
2011,04,26,20,44,10.20
2011,04,26,20,45,10.10
2011,04,26,20,46,10.10
2011,04,26,20,47,10.10
2011,04,26,20,48,10.00
2011,04,26,20,49,10.00
2011,04,26,20,50,9.90
2011,04,26,20,51,9.90
2011,04,26,20,52,9.90
2011,04,26,20,53,9.90
2011,04,26,20,54,9.80
2011,04,26,20,55,9.80
2011,04,26,20,56,9.80
2011,04,26,20,57,9.80
2011,04,26,20,58,9.80
2011,04,26,20,59,9.80
2011,04,26,21,00,9.80
2011,04,26,21,01,9.80
2011,04,26,21,02,9.80
2011,04,26,21,03,9.70
2011,04,26,21,04,9.70
2011,04,26,21,05,9.70
2011,04,26,21,06,9.80
2011,04,26,21,07,9.80
2011,04,26,21,08,9.80
2011,04,26,21,09,9.70
2011,04,26,21,10,9.70
2011,04,26,21,11,9.70
2011,04,26,21,12,9.70
2011,04,26,21,13,9.70
2011,04,26,21,14,9.70
2011,04,26,21,15,9.70
2011,04,26,21,16,9.70
2011,04,26,21,17,9.70
2011,04,26,21,18,9.60
2011,04,26,21,19,9.60
2011,04,26,21,20,9.60
2011,04,26,21,21,9.60
2011,04,26,21,22,9.60
2011,04,26,21,23,9.60
2011,04,26,21,24,9.60
2011,04,26,21,25,9.60
2011,04,26,21,26,9.60
2011,04,26,21,27,9.60
2011,04,26,21,28,9.60
2011,04,26,21,29,9.60
2011,04,26,21,30,9.60
2011,04,26,21,31,9.50
2011,04,26,21,32,9.40
2011,04,26,21,33,9.30
2011,04,26,21,34,9.30
2011,04,26,21,35,9.20
2011,04,26,21,36,9.20
2011,04,26,21,37,9.20
2011,04,26,21,38,9.20
2011,04,26,21,39,9.10
2011,04,26,21,40,9.10
2011,04,26,21,41,9.20
2011,04,26,21,42,9.20
2011,04,26,21,43,9.20
2011,04,26,21,44,9.20
2011,04,26,21,45,9.20
2011,04,26,21,46,9.20
2011,04,26,21,47,9.20
2011,04,26,21,48,9.10
2011,04,26,21,49,9.10
2011,04,26,21,50,9.00
2011,04,26,21,51,8.90
2011,04,26,21,52,8.90
2011,04,26,21,53,8.90